time_stamp(utc),avg(mph),gust(mph),direction(deg),12m_air_temp(f),sonic_u(cm/s),sonic_v(cm/s),sonic_w(cm/s),pressure,2m_air_temp(f),pyranometer(W/m^2)
"2020-10-07 00:03:00+00",12.6,13.6,,64.2,-221,-518,0,1016.09,63.4,0
"2020-10-07 00:08:00+00",12.9,15.9,,64.3,-243,-525,-1,1015.97,63.4,0
"2020-10-07 00:13:00+00",10.4,12.4,,64.2,-206,-427,17,1015.99,63.4,0
"2020-10-07 00:18:00+00",13.0,15.0,,64.3,-286,-511,-8,1016.02,63.4,0
"2020-10-07 00:23:00+00",12.6,14.6,,64.4,-283,-500,7,1015.84,63.5,0
"2020-10-07 00:28:00+00",11.2,13.2,,64.4,-209,-463,-7,1015.83,63.5,0
"2020-10-07 00:33:00+00",11.3,14.3,,64.4,-213,-437,-10,1015.88,63.5,0
"2020-10-07 00:38:00+00",12.1,13.1,,64.4,-234,-483,-1,1015.74,63.5,0
"2020-10-07 00:43:00+00",12.2,14.2,,64.5,-202,-500,4,1015.6,63.6,0
"2020-10-07 00:48:00+00",14.4,17.4,,64.5,-197,-605,-20,1015.55,63.6,0
"2020-10-07 00:53:00+00",14.4,16.4,,64.7,-198,-587,-2,1015.47,63.9,0
"2020-10-07 00:58:00+00",12.7,14.7,,64.7,-202,-516,-2,1015.51,63.8,0
"2020-10-07 01:03:00+00",12.6,14.6,,64.6,-216,-503,-9,1015.55,63.8,0
"2020-10-07 01:08:00+00",11.6,13.6,,64.7,-267,-463,5,1015.59,63.8,0
"2020-10-07 01:13:00+00",11.2,15.2,,64.8,-326,-384,19,1015.64,63.9,0
"2020-10-07 01:18:00+00",12.5,15.5,,64.9,-408,-381,4,1015.56,63.9,0
"2020-10-07 01:23:00+00",15.2,17.2,,65.3,-498,-459,5,1015.47,64,0
"2020-10-07 01:28:00+00",15.7,18.7,,65.1,-532,-458,12,1015.58,64.1,0
"2020-10-07 01:33:00+00",14.4,15.4,,64.9,-499,-401,12,1015.52,64,0
"2020-10-07 01:38:00+00",12.8,14.8,,64.8,-484,-351,-2,1015.57,63.9,0
"2020-10-07 01:43:00+00",12.4,14.4,,64.5,-490,-308,11,1015.46,63.7,0
"2020-10-07 01:48:00+00",11.3,14.3,,64.3,-440,-294,19,1015.59,63.5,0
"2020-10-07 01:53:00+00",10.8,12.8,,64.1,-446,-280,19,1015.57,63.3,0
"2020-10-07 01:58:00+00",11.4,13.4,,64,-427,-308,7,1015.53,63.1,0
"2020-10-07 02:03:00+00",11.2,14.2,,63.8,-382,-324,17,1015.47,62.9,0
"2020-10-07 02:08:00+00",11.2,14.2,,63.7,-373,-321,10,1015.51,62.8,0
"2020-10-07 02:13:00+00",10.1,12.1,,63.5,-331,-291,15,1015.56,62.7,0
"2020-10-07 02:18:00+00",9.8,10.8,,63.5,-300,-300,5,1015.5,62.6,0
"2020-10-07 02:23:00+00",10.1,12.1,,63.5,-304,-333,10,1015.47,62.5,0
"2020-10-07 02:28:00+00",11.1,13.1,,63.5,-352,-343,18,1015.55,62.5,0
"2020-10-07 02:33:00+00",13.4,16.4,,63.7,-473,-380,13,1015.55,62.6,0
"2020-10-07 02:38:00+00",15.6,17.6,,63.7,-500,-461,9,1015.43,62.7,0
"2020-10-07 02:43:00+00",15.7,18.7,,63.7,-524,-463,0,1015.44,62.7,0
"2020-10-07 02:48:00+00",15.1,18.1,,63.7,-489,-446,4,1015.39,62.8,0
"2020-10-07 02:53:00+00",13.7,16.7,,63.5,-441,-416,14,1015.38,62.8,0
"2020-10-07 02:58:00+00",14.6,18.6,,63.6,-458,-441,9,1015.34,62.8,0
"2020-10-07 03:03:00+00",13.4,15.4,,63.5,-428,-404,21,1015.34,62.8,0
"2020-10-07 03:08:00+00",13.1,17.1,,63.5,-397,-427,18,1015.16,62.8,0
"2020-10-07 03:13:00+00",11.8,14.8,,63.5,-372,-359,21,1015.2,62.7,0
"2020-10-07 03:18:00+00",15.0,17.0,,63.7,-460,-488,4,1015.24,62.7,0
"2020-10-07 03:23:00+00",14.5,17.5,,63.7,-453,-449,3,1015.22,62.7,0
"2020-10-07 03:28:00+00",12.9,14.9,,63.7,-413,-394,27,1015.24,62.8,0
"2020-10-07 03:33:00+00",13.6,15.6,,63.7,-442,-421,24,1015.18,62.8,0
"2020-10-07 03:38:00+00",15.7,17.7,,63.8,-492,-476,27,1015.12,62.9,0
"2020-10-07 03:43:00+00",15.6,18.6,,63.9,-478,-490,3,1014.98,62.9,0
"2020-10-07 03:48:00+00",16.0,18.0,,63.9,-479,-539,10,1015.02,63,0
"2020-10-07 03:53:00+00",15.2,17.2,,63.9,-459,-488,4,1014.83,63.1,0
"2020-10-07 03:58:00+00",15.4,18.4,,63.8,-509,-448,14,1014.66,63.1,0
"2020-10-07 04:03:00+00",17.2,21.2,,63.8,-571,-511,13,1014.72,63.1,0
"2020-10-07 04:08:00+00",15.8,18.8,,63.7,-478,-491,12,1014.65,63,0
"2020-10-07 04:13:00+00",15.8,18.8,,63.6,-524,-479,6,1014.64,63,0
"2020-10-07 04:18:00+00",15.5,18.5,,63.5,-544,-431,16,1014.52,62.9,0
"2020-10-07 04:23:00+00",17.0,19.0,,63.5,-591,-489,20,1014.43,62.8,0
"2020-10-07 04:28:00+00",16.1,19.1,,63.4,-543,-453,25,1014.41,62.8,0
"2020-10-07 04:33:00+00",17.4,20.4,,63.3,-587,-513,5,1014.35,62.8,0
"2020-10-07 04:38:00+00",16.7,19.7,,63.2,-562,-487,12,1014.21,62.6,0
"2020-10-07 04:43:00+00",14.4,17.4,,63.1,-447,-454,29,1014.19,62.6,0
"2020-10-07 04:48:00+00",15.8,20.8,,63.1,-485,-506,19,1014.09,62.5,0
"2020-10-07 04:53:00+00",14.8,18.8,,63.1,-489,-455,41,1014.08,62.5,0
"2020-10-07 04:58:00+00",13.7,15.7,,63,-433,-421,24,1014.02,62.5,0
"2020-10-07 05:03:00+00",13.4,16.4,,62.9,-422,-443,20,1014,62.4,0
"2020-10-07 05:08:00+00",15.3,17.3,,63,-481,-485,12,1013.93,62.3,0
"2020-10-07 05:13:00+00",16.7,17.7,,63,-511,-539,3,1013.78,62.3,0
"2020-10-07 05:18:00+00",17.1,19.1,,63,-539,-516,-10,1013.83,62.3,0
"2020-10-07 05:23:00+00",16.7,18.7,,63,-507,-540,8,1013.66,62.3,0
"2020-10-07 05:28:00+00",15.4,19.4,,62.9,-495,-472,13,1013.76,62.3,0
"2020-10-07 05:33:00+00",17.2,20.2,,62.9,-562,-509,10,1013.61,62.3,0
"2020-10-07 05:38:00+00",14.9,17.9,,62.8,-491,-463,12,1013.55,62.2,0
"2020-10-07 05:43:00+00",16.2,18.2,,62.8,-529,-486,7,1013.54,62.2,0
"2020-10-07 05:48:00+00",15.3,17.3,,62.6,-504,-449,9,1013.47,62.1,0
"2020-10-07 05:53:00+00",14.2,17.2,,62.7,-489,-399,38,1013.46,62.1,0
"2020-10-07 05:58:00+00",16.3,20.3,,62.6,-565,-463,1,1013.44,62,0
"2020-10-07 06:03:00+00",16.0,19.0,,62.6,-516,-471,24,1013.29,62,0
"2020-10-07 06:08:00+00",15.0,17.0,,62.5,-486,-447,17,1013.14,62,0
"2020-10-07 06:13:00+00",13.3,16.3,,62.5,-447,-393,14,1013.26,61.9,0
"2020-10-07 06:18:00+00",15.7,17.7,,62.5,-535,-457,14,1013.14,61.9,0
"2020-10-07 06:23:00+00",13.8,16.8,,62.6,-468,-404,19,1013.07,61.9,0
"2020-10-07 06:28:00+00",14.6,17.6,,62.6,-478,-437,14,1012.99,61.9,0
"2020-10-07 06:33:00+00",12.3,13.3,,62.5,-398,-379,10,1012.83,61.9,0
"2020-10-07 06:38:00+00",11.7,13.7,,62.6,-366,-363,23,1012.71,61.9,0
"2020-10-07 06:43:00+00",13.4,15.4,,62.6,-424,-404,7,1012.7,62,0
"2020-10-07 06:48:00+00",13.3,15.3,,62.6,-383,-441,-2,1012.59,62,0
"2020-10-07 06:53:00+00",14.3,16.3,,62.6,-420,-481,8,1012.52,62,0
"2020-10-07 06:58:00+00",13.4,15.4,,62.7,-386,-465,-4,1012.37,62.1,0
"2020-10-07 07:03:00+00",11.3,13.3,,62.8,-340,-373,26,1012.35,62.2,0
"2020-10-07 07:08:00+00",10.7,11.7,,62.8,-294,-383,14,1012.38,62.2,0
"2020-10-07 07:13:00+00",12.5,14.5,,62.8,-357,-440,0,1012.3,62.1,0
"2020-10-07 07:18:00+00",11.1,14.1,,62.7,-325,-400,25,1012.28,62.1,0
"2020-10-07 07:23:00+00",13.2,15.2,,62.8,-380,-462,1,1012.21,62.1,0
"2020-10-07 07:28:00+00",14.2,16.2,,62.8,-418,-465,-9,1012.19,62.1,0
"2020-10-07 07:33:00+00",13.0,16.0,,62.8,-377,-452,7,1012.07,62.1,0
"2020-10-07 07:38:00+00",14.2,16.2,,62.8,-418,-505,14,1011.98,62.1,0
"2020-10-07 07:43:00+00",14.2,16.2,,62.9,-414,-485,7,1011.91,62.1,0
"2020-10-07 07:48:00+00",14.0,17.0,,62.9,-409,-472,3,1011.91,62.2,0
"2020-10-07 07:53:00+00",14.3,16.3,,63.1,-420,-492,4,1011.84,62.2,0
"2020-10-07 07:58:00+00",14.5,18.5,,63.2,-451,-500,8,1011.94,62.3,0
"2020-10-07 08:03:00+00",15.6,18.6,,63.4,-483,-513,0,1011.88,62.5,0
"2020-10-07 08:08:00+00",16.1,19.1,,63.5,-495,-533,-11,1011.88,62.6,0
"2020-10-07 08:13:00+00",13.9,15.9,,63.4,-424,-454,13,1011.82,62.6,0
"2020-10-07 08:18:00+00",15.7,17.7,,63.5,-475,-530,-9,1011.8,62.6,0
"2020-10-07 08:23:00+00",14.0,17.0,,63.3,-427,-452,19,1011.84,62.6,0
"2020-10-07 08:28:00+00",14.9,17.9,,63.3,-472,-472,-3,1011.84,62.6,0
"2020-10-07 08:33:00+00",14.1,16.1,,63.3,-434,-441,9,1011.83,62.6,0
"2020-10-07 08:38:00+00",13.7,15.7,,63.3,-447,-423,15,1011.84,62.6,0
"2020-10-07 08:43:00+00",14.2,17.2,,63.3,-453,-448,21,1011.76,62.6,0
"2020-10-07 08:48:00+00",14.7,16.7,,63.2,-468,-439,16,1011.67,62.6,0
"2020-10-07 08:53:00+00",14.0,15.0,,63.2,-457,-406,0,1011.71,62.5,0
"2020-10-07 08:58:00+00",12.1,16.1,,63,-408,-368,10,1011.74,62.4,0
"2020-10-07 09:03:00+00",14.1,16.1,,63,-442,-434,17,1011.67,62.3,0
"2020-10-07 09:08:00+00",12.6,14.6,,62.9,-397,-379,18,1011.66,62.2,0
"2020-10-07 09:13:00+00",13.0,15.0,,62.9,-431,-392,5,1011.63,62.2,0
"2020-10-07 09:18:00+00",13.2,17.2,,62.8,-417,-398,15,1011.65,62.1,0
"2020-10-07 09:23:00+00",12.5,13.5,,62.6,-414,-371,4,1011.66,62,0
"2020-10-07 09:28:00+00",10.8,12.8,,62.6,-388,-297,19,1011.69,61.9,0
"2020-10-07 09:33:00+00",12.2,15.2,,62.6,-446,-327,0,1011.68,61.9,0
"2020-10-07 09:38:00+00",13.1,16.1,,62.5,-467,-371,-2,1011.69,61.9,0
"2020-10-07 09:43:00+00",13.5,16.5,,62.5,-477,-387,22,1011.64,61.8,0
"2020-10-07 09:48:00+00",12.1,15.1,,62.5,-415,-336,28,1011.56,61.8,0
"2020-10-07 09:53:00+00",12.8,14.8,,62.5,-462,-358,7,1011.57,61.8,0
"2020-10-07 09:58:00+00",12.6,16.6,,62.3,-448,-344,17,1011.5,61.7,0
"2020-10-07 10:03:00+00",14.5,16.5,,62.4,-572,-376,-1,1011.6,61.7,0
"2020-10-07 10:08:00+00",14.6,17.6,,62.3,-555,-398,19,1011.6,61.6,0
"2020-10-07 10:13:00+00",14.0,17.0,,62.1,-569,-355,12,1011.46,61.5,0
"2020-10-07 10:18:00+00",12.5,16.5,,61.8,-503,-333,32,1011.38,61.4,0
"2020-10-07 10:23:00+00",12.6,13.6,,61.7,-516,-313,16,1011.31,61.3,0
"2020-10-07 10:28:00+00",15.1,17.1,,61.7,-632,-325,24,1011.31,61.2,0
"2020-10-07 10:33:00+00",13.9,16.9,,61.5,-585,-298,13,1011.3,61,0
"2020-10-07 10:38:00+00",15.3,19.3,,61.5,-657,-339,17,1011.19,60.9,0
"2020-10-07 10:43:00+00",14.6,17.6,,61.5,-624,-329,26,1011.2,60.9,0
"2020-10-07 10:48:00+00",13.6,16.6,,61.4,-562,-303,46,1011.18,60.8,0
"2020-10-07 10:53:00+00",16.4,19.4,,61.3,-695,-342,21,1011.16,60.7,0
"2020-10-07 10:58:00+00",14.8,16.8,,61.1,-612,-298,7,1011.19,60.6,0
"2020-10-07 11:03:00+00",14.9,16.9,,61,-607,-261,14,1011.23,60.5,0
"2020-10-07 11:08:00+00",13.3,15.3,,60.9,-551,-242,24,1011.17,60.4,0
"2020-10-07 11:13:00+00",15.3,17.3,,60.9,-628,-240,30,1011.09,60.4,0
"2020-10-07 11:18:00+00",13.7,15.7,,60.9,-560,-180,36,1011.17,60.4,0
"2020-10-07 11:23:00+00",14.6,17.6,,60.9,-604,-193,16,1011.14,60.4,0
"2020-10-07 11:28:00+00",14.4,16.4,,61,-598,-198,26,1011.23,60.4,0
"2020-10-07 11:33:00+00",14.4,16.4,,61,-597,-243,39,1011.21,60.5,0
"2020-10-07 11:38:00+00",12.6,14.6,,61,-528,-243,44,1011.12,60.5,0
"2020-10-07 11:43:00+00",14.1,17.1,,61.1,-590,-315,4,1011,60.7,0
"2020-10-07 11:48:00+00",13.9,15.9,,61.2,-589,-336,15,1010.89,61,0
"2020-10-07 11:53:00+00",12.5,15.5,,61.3,-527,-282,11,1010.88,61.3,0
"2020-10-07 11:58:00+00",13.1,15.1,,61.4,-541,-283,25,1010.96,61.7,0
"2020-10-07 12:03:00+00",13.8,15.8,,61.5,-563,-347,24,1010.95,62.1,0
"2020-10-07 12:08:00+00",15.8,16.8,,61.6,-673,-394,5,1010.8,62.4,0
"2020-10-07 12:13:00+00",14.0,16.0,,61.8,-585,-352,19,1010.79,62.8,0
"2020-10-07 12:18:00+00",14.7,17.7,,61.9,-564,-398,13,1010.78,63.2,0
"2020-10-07 12:23:00+00",15.5,18.5,,62.1,-607,-394,11,1010.67,63.5,0
"2020-10-07 12:28:00+00",12.2,14.2,,62.4,-482,-319,17,1010.72,64,0
"2020-10-07 12:33:00+00",14.9,16.9,,62.5,-600,-387,10,1010.61,64.4,0
"2020-10-07 12:38:00+00",13.0,15.0,,62.7,-530,-305,36,1010.65,64.9,0
"2020-10-07 12:43:00+00",13.1,18.1,,63,-553,-287,26,1010.65,65.3,0
"2020-10-07 12:48:00+00",12.8,15.8,,63.2,-542,-302,35,1010.63,65.7,0
"2020-10-07 12:53:00+00",14.2,16.2,,63.4,-607,-317,13,1010.61,66.1,0
"2020-10-07 12:58:00+00",13.9,15.9,,63.7,-573,-329,17,1010.49,66.5,0
"2020-10-07 13:03:00+00",13.8,15.8,,64,-566,-345,17,1010.55,66.9,0
"2020-10-07 13:08:00+00",14.3,17.3,,64.2,-557,-377,14,1010.4,67.1,0
"2020-10-07 13:13:00+00",14.8,16.8,,64.4,-520,-406,27,1010.34,67.2,0
"2020-10-07 13:18:00+00",14.0,16.0,,64.6,-496,-391,27,1010.28,67.3,0
"2020-10-07 13:23:00+00",16.7,18.7,,64.7,-587,-453,5,1010.23,67.4,0
"2020-10-07 13:28:00+00",15.3,17.3,,65,-559,-405,22,1010.32,67.7,0
"2020-10-07 13:33:00+00",14.1,16.1,,65.4,-519,-382,44,1010.27,68,0
"2020-10-07 13:38:00+00",14.4,17.4,,65.5,-483,-414,44,1010.17,68.2,0
"2020-10-07 13:43:00+00",14.9,17.9,,65.8,-537,-420,14,1010.16,68.3,0
"2020-10-07 13:48:00+00",14.3,16.3,,66,-474,-413,20,1009.92,68.5,0
"2020-10-07 13:53:00+00",14.3,16.3,,66.3,-503,-391,59,1009.85,68.9,0
"2020-10-07 13:58:00+00",15.4,18.4,,66.4,-566,-413,26,1009.92,69.2,0
"2020-10-07 14:03:00+00",15.8,18.8,,66.5,-597,-434,15,1009.76,69.6,0
"2020-10-07 14:08:00+00",15.1,18.1,,66.8,-547,-412,11,1009.64,69.8,0
"2020-10-07 14:13:00+00",15.6,18.6,,67.1,-545,-440,24,1009.63,70,0
"2020-10-07 14:18:00+00",16.0,19.0,,67.6,-555,-444,28,1009.53,70.4,0
"2020-10-07 14:23:00+00",16.1,18.1,,67.9,-563,-452,16,1009.51,70.6,0
"2020-10-07 14:28:00+00",14.8,17.8,,68.2,-468,-472,8,1009.44,70.7,0
"2020-10-07 14:33:00+00",14.5,17.5,,68.5,-461,-440,25,1009.47,70.9,0
"2020-10-07 14:38:00+00",16.3,18.3,,68.6,-510,-497,19,1009.27,71.1,0
"2020-10-07 14:43:00+00",15.5,18.5,,69.1,-545,-439,19,1009.16,71.5,0
"2020-10-07 14:48:00+00",16.1,20.1,,69.8,-633,-388,31,1008.97,72.2,0
"2020-10-07 14:53:00+00",17.8,19.8,,70.4,-753,-412,29,1009,72.7,0
"2020-10-07 14:58:00+00",18.3,22.3,,70.8,-723,-485,28,1008.77,73.1,0
"2020-10-07 15:03:00+00",14.9,19.9,,71,-535,-424,47,1008.74,73.6,0
"2020-10-07 15:08:00+00",18.7,21.7,,70.7,-680,-514,20,1008.67,73.8,0
"2020-10-07 15:13:00+00",19.0,22.0,,71.1,-782,-485,19,1008.68,73.9,0
"2020-10-07 15:18:00+00",21.9,23.9,,71.3,-912,-531,7,1008.62,74.3,0
"2020-10-07 15:23:00+00",18.4,21.4,,71.8,-745,-444,79,1008.48,74.6,0
"2020-10-07 15:28:00+00",19.7,21.7,,71.9,-830,-468,23,1008.33,74.9,0
"2020-10-07 15:33:00+00",23.4,26.4,,72,-986,-448,22,1008.14,75,0
"2020-10-07 15:38:00+00",19.1,21.1,,72.2,-809,-370,39,1008.12,75.4,0
"2020-10-07 15:43:00+00",21.9,27.9,,72.4,-930,-407,39,1007.98,75.7,0
"2020-10-07 15:48:00+00",20.5,25.5,,72.7,-884,-485,37,1007.86,75.8,0
"2020-10-07 15:53:00+00",20.2,23.2,,72.6,-835,-407,55,1007.81,75.7,0
"2020-10-07 15:58:00+00",22.2,25.2,,72.5,-947,-438,11,1007.72,75.8,0
"2020-10-07 16:03:00+00",24.1,29.1,,72.7,-997,-408,45,1007.68,75.9,0
"2020-10-07 16:08:00+00",19.9,26.9,,72.7,-820,-423,61,1007.64,76,0
"2020-10-07 16:13:00+00",18.8,23.8,,72.8,-755,-462,56,1007.64,76,0
"2020-10-07 16:18:00+00",19.4,22.4,,73,-815,-354,42,1007.55,76.2,0
"2020-10-07 16:23:00+00",19.2,23.2,,73,-792,-303,40,1007.51,76.6,0
"2020-10-07 16:28:00+00",21.2,23.2,,73,-874,-270,20,1007.46,76.9,0
"2020-10-07 16:33:00+00",19.5,22.5,,73.2,-833,-227,62,1007.37,77.1,0
"2020-10-07 16:38:00+00",16.5,20.5,,73.6,-681,-242,50,1007.19,77.4,0
"2020-10-07 16:43:00+00",18.6,21.6,,73.3,-747,-275,37,1007.14,77.6,0
"2020-10-07 16:48:00+00",22.4,28.4,,73.9,-940,-541,19,1006.89,77.5,0
"2020-10-07 16:53:00+00",23.6,25.6,,73.9,-994,-530,31,1006.85,77.1,0
"2020-10-07 16:58:00+00",26.4,31.4,,73.9,-1098,-333,50,1006.79,77,0
"2020-10-07 17:03:00+00",23.7,30.7,,74,-1023,-246,47,1006.71,77.1,0
"2020-10-07 17:08:00+00",21.2,27.2,,74.4,-873,-300,59,1006.63,77.4,0
"2020-10-07 17:13:00+00",17.5,19.5,,74.3,-743,-427,36,1006.59,77.6,0
"2020-10-07 17:18:00+00",20.6,23.6,,74.5,-884,-447,27,1006.45,77.9,0
"2020-10-07 17:23:00+00",16.8,18.8,,74.5,-701,-366,82,1006.34,77.6,0
"2020-10-07 17:28:00+00",21.4,24.4,,74.5,-859,-524,58,1006.14,77.5,0
"2020-10-07 17:33:00+00",26.8,32.8,,74.7,-1102,-680,15,1006.04,77.3,0
"2020-10-07 17:38:00+00",23.0,29.0,,74.7,-922,-310,60,1005.99,77.4,0
"2020-10-07 17:43:00+00",20.5,25.5,,74.8,-868,-369,56,1005.94,77.6,0
"2020-10-07 17:48:00+00",28.3,34.3,,75,-1196,-298,40,1005.78,77.8,0
"2020-10-07 17:53:00+00",24.3,29.3,,75.1,-997,-340,52,1005.73,77.8,0
"2020-10-07 17:58:00+00",26.0,29.0,,75,-1093,-523,30,1005.74,77.7,0
"2020-10-07 18:03:00+00",27.3,31.3,,75.2,-1113,-468,50,1005.66,77.5,0
"2020-10-07 18:08:00+00",27.1,33.1,,75.1,-1121,-373,39,1005.5,77.7,0
"2020-10-07 18:13:00+00",22.9,26.9,,75.1,-953,-559,22,1005.45,77.6,0
"2020-10-07 18:18:00+00",23.1,28.1,,75.2,-956,-394,97,1005.36,77.5,0
"2020-10-07 18:23:00+00",23.4,26.4,,75.1,-973,-381,28,1005.29,77.7,0
"2020-10-07 18:28:00+00",22.9,26.9,,75.3,-944,-444,24,1005.25,77.6,0
"2020-10-07 18:33:00+00",18.5,20.5,,75.1,-755,-476,22,1005.18,77.4,0
"2020-10-07 18:38:00+00",24.5,27.5,,75,-1051,-554,29,1004.99,77.2,0
"2020-10-07 18:43:00+00",21.1,24.1,,75.2,-842,-540,26,1004.81,77.3,0
"2020-10-07 18:48:00+00",24.1,27.1,,75.3,-959,-623,36,1004.67,77.3,0
"2020-10-07 18:53:00+00",24.9,27.9,,75.3,-1034,-415,43,1004.54,77.5,0
"2020-10-07 18:58:00+00",25.7,28.7,,75.4,-1013,-673,29,1004.39,77.4,0
"2020-10-07 19:03:00+00",23.0,26.0,,75.5,-940,-368,36,1004.35,77.6,0
"2020-10-07 19:08:00+00",25.1,30.1,,75.6,-1017,-404,48,1004.36,77.9,0
"2020-10-07 19:13:00+00",28.1,35.1,,75.8,-1155,-461,54,1004.27,77.8,0
"2020-10-07 19:18:00+00",25.8,29.8,,75.9,-1066,-442,46,1004.13,77.9,0
"2020-10-07 19:23:00+00",25.7,28.7,,75.9,-1087,-566,12,1004,77.9,0
"2020-10-07 19:28:00+00",25.3,29.3,,76,-1073,-266,53,1003.91,78,0
"2020-10-07 19:33:00+00",19.8,23.8,,75.8,-824,-387,34,1003.9,78.3,0
"2020-10-07 19:38:00+00",25.6,30.6,,75.9,-1078,-531,53,1003.85,78.2,0
"2020-10-07 19:43:00+00",21.9,25.9,,76.2,-921,-419,42,1003.8,78.3,0
"2020-10-07 19:48:00+00",21.3,26.3,,75.7,-892,-268,27,1003.74,78.5,0
"2020-10-07 19:53:00+00",24.0,26.0,,76,-985,-318,44,1003.51,78.8,0
"2020-10-07 19:58:00+00",23.6,28.6,,76.1,-992,-320,26,1003.45,78.8,0
"2020-10-07 20:03:00+00",18.4,21.4,,75.8,-782,-275,50,1003.5,78.9,0
"2020-10-07 20:08:00+00",24.7,26.7,,75.7,-1033,-456,46,1003.38,78.7,0
"2020-10-07 20:13:00+00",24.7,28.7,,75.6,-1019,-336,27,1003.53,78.5,0
"2020-10-07 20:18:00+00",23.2,27.2,,75.9,-1006,-205,30,1003.53,78.4,0
"2020-10-07 20:23:00+00",23.0,25.0,,75.7,-985,-226,56,1003.5,78.3,0
"2020-10-07 20:28:00+00",20.7,23.7,,75.5,-844,-276,43,1003.49,78.2,0
"2020-10-07 20:33:00+00",21.7,23.7,,75.3,-882,-313,40,1003.43,78.1,0
"2020-10-07 20:38:00+00",20.2,23.2,,75.2,-811,-277,55,1003.37,78.1,0
"2020-10-07 20:43:00+00",21.3,24.3,,75.1,-898,-243,20,1003.43,77.9,0
"2020-10-07 20:48:00+00",20.5,23.5,,75.1,-844,-269,48,1003.55,77.7,0
"2020-10-07 20:53:00+00",20.0,24.0,,74.9,-826,-256,49,1003.66,77.6,0
"2020-10-07 20:58:00+00",23.6,27.6,,74.9,-971,-311,28,1003.55,77.4,0
"2020-10-07 21:03:00+00",16.9,20.9,,74.6,-711,-303,32,1003.6,77.3,0
"2020-10-07 21:08:00+00",21.0,25.0,,75.1,-870,-319,32,1003.53,77,0
"2020-10-07 21:13:00+00",21.2,25.2,,74.7,-878,-383,37,1003.62,76.8,0
"2020-10-07 21:18:00+00",20.0,23.0,,74.6,-832,-481,34,1003.65,76.5,0
"2020-10-07 21:23:00+00",18.8,21.8,,74.4,-794,-404,33,1003.72,76.2,0
"2020-10-07 21:28:00+00",18.5,21.5,,74.2,-781,-426,14,1003.78,76,0
"2020-10-07 21:33:00+00",17.8,20.8,,74.2,-757,-423,29,1003.73,75.6,0
"2020-10-07 21:38:00+00",17.3,19.3,,74.1,-708,-408,51,1003.69,75.3,0
"2020-10-07 21:43:00+00",19.8,22.8,,74.1,-823,-475,27,1003.69,74.9,0
"2020-10-07 21:48:00+00",16.7,18.7,,73.6,-674,-442,25,1003.69,74.6,0
"2020-10-07 21:53:00+00",17.1,20.1,,73.4,-686,-451,23,1003.78,74.2,0
"2020-10-07 21:58:00+00",17.1,20.1,,73.3,-676,-447,26,1003.74,73.8,0
"2020-10-07 22:03:00+00",17.2,21.2,,73,-699,-434,16,1003.87,73.4,0
"2020-10-07 22:08:00+00",16.5,18.5,,72.7,-629,-446,38,1003.88,72.9,0
"2020-10-07 22:13:00+00",16.6,18.6,,72.7,-657,-435,27,1003.87,72.4,0
"2020-10-07 22:18:00+00",18.5,20.5,,72.6,-727,-490,12,1003.9,72.1,0
"2020-10-07 22:23:00+00",17.0,19.0,,72.5,-692,-439,35,1004.05,71.8,0
"2020-10-07 22:28:00+00",16.7,19.7,,72.4,-688,-403,11,1004.21,71.6,0
"2020-10-07 22:33:00+00",16.6,18.6,,72.4,-656,-434,15,1004.13,71.4,0
"2020-10-07 22:38:00+00",16.9,19.9,,72.3,-680,-434,33,1004.21,71.3,0
"2020-10-07 22:43:00+00",18.8,21.8,,72.3,-737,-484,7,1004.32,71.2,0
"2020-10-07 22:48:00+00",18.0,22.0,,72.2,-730,-448,30,1004.48,71.1,0
"2020-10-07 22:53:00+00",16.9,19.9,,72.3,-711,-425,32,1004.55,71.1,0
"2020-10-07 22:58:00+00",17.9,22.9,,72.2,-695,-461,49,1004.57,71.1,0
"2020-10-07 23:03:00+00",19.2,25.2,,72,-769,-510,4,1004.7,71,0
"2020-10-07 23:08:00+00",18.6,22.6,,72,-750,-480,11,1004.78,70.9,0
"2020-10-07 23:13:00+00",20.7,23.7,,72.3,-815,-525,22,1004.82,70.9,0
"2020-10-07 23:18:00+00",18.1,21.1,,72,-718,-469,25,1004.9,70.9,0
"2020-10-07 23:23:00+00",16.7,18.7,,71.8,-688,-413,25,1005.03,70.8,0
"2020-10-07 23:28:00+00",17.3,20.3,,71.7,-727,-433,26,1005.09,70.6,0
"2020-10-07 23:33:00+00",16.8,21.8,,71.7,-678,-339,28,1005.15,70.4,0
"2020-10-07 23:38:00+00",17.2,23.2,,71.6,-740,-361,47,1005.24,70.3,0
"2020-10-07 23:43:00+00",19.5,23.5,,71.9,-815,-380,24,1005.3,70.3,0
"2020-10-07 23:48:00+00",18.5,21.5,,71.9,-779,-309,27,1005.42,70.4,0
"2020-10-07 23:53:00+00",18.6,20.6,,72,-773,-226,23,1005.5,70.5,0
"2020-10-07 23:58:00+00",17.4,19.4,,71.9,-750,-121,29,1005.69,70.5,0
